RH
23 26 20 13 21 28 38 42 43 33 39 36 29 27 24 23 26 27 23 23 23 25 26 24 25 23 22 22 21 22 24 33 32 38 37 35 37 45 40 40 42 42 39 33
26 16 17 22 22 22 27 38 36 35 38 41 33 21 17 20 23 27 28 24 25 26 25 26 27 26 24 23 23 24 24 28 29 34 31 32 37 44 48 49 46 52 63 70
16 15 12 22 20 25 26 37 37 41 39 40 40 18 16 28 29 24 24 26 27 28 28 26 24 24 22 22 23 24 25 25 27 29 30 29 32 39 44 45 56 68 79 80
28 17 19 22 13 17 12 15 19 34 42 42 40 36 16 30 29 29 29 28 28 27 24 23 22 22 23 21 21 24 26 26 26 27 28 28 30 36 45 55 64 75 84 75
23 18 16 16 13 18 17 32 30 40 42 42 39 35 19 31 28 27 28 28 28 27 24 22 22 21 21 22 22 23 25 26 27 28 28 28 30 41 48 62 71 78 82 66
28 26 26 21 21 28 38 42 45 44 43 47 30 33 22 30 17 14 15 25 25 27 28 25 22 22 23 23 22 23 25 26 28 30 32 33 40 47 53 59 68 80 54 45
22 24 27 26 28 25 36 35 47 45 54 59 30 37 16 25 20 16 27 22 20 29 29 28 28 27 26 26 27 27 28 28 30 32 31 31 38 44 44 48 41 36 34 36
28 28 21 17 16 16 16 26 44 57 59 49 41 38 16 16 17 19 31 18 23 33 34 34 32 30 32 33 34 33 33 31 32 35 35 31 33 31 30 30 31 31 38 41
25 24 19 16 15 17 24 21 23 41 46 50 36 32 23 19 17 15 22 15 21 34 38 34 33 35 34 37 38 39 41 40 39 38 36 31 30 35 41 41 38 36 39 41
21 20 19 18 18 20 24 20 37 44 60 64 46 37 29 18 17 20 19 19 20 31 34 33 29 31 31 32 29 24 39 42 41 42 40 36 34 42 45 47 46 43 48 53
25 23 23 20 21 15 25 31 29 33 40 56 58 43 29 22 21 20 20 22 26 24 28 34 35 36 32 29 32 31 26 38 44 44 46 45 46 47 48 49 52 56 58 59
24 27 28 22 28 23 28 25 26 36 43 41 44 36 29 26 25 25 23 24 27 29 28 27 25 20 16 17 19 22 31 33 44 45 47 47 48 49 50 52 54 56 56 59
24 36 37 33 26 35 39 31 35 30 32 33 50 37 30 31 30 29 31 28 31 31 27 14 13 16 21 28 35 32 30 31 41 46 48 49 50 51 52 52 53 54 56 57
29 32 32 28 20 18 23 32 35 38 40 38 37 35 34 34 33 30 30 30 28 24 15 15 15 20 26 42 55 46 40 35 43 47 52 54 53 53 53 55 58 57 58 58
40 37 32 28 25 22 21 19 31 34 36 40 38 37 36 31 22 19 19 18 17 16 16 18 20 31 43 58 60 59 54 48 47 54 56 54 55 55 57 60 62 63 63 64
46 50 45 40 31 30 28 32 31 30 32 33 34 28 24 24 25 21 19 20 18 23 30 32 35 58 57 58 63 62 60 60 60 60 60 60 59 60 58 57 58 63 78 75
53 54 50 49 43 41 47 34 28 30 36 33 32 30 33 28 22 22 20 22 28 32 41 59 73 72 70 68 66 65 62 62 61 61 63 62 61 59 57 59 62 67 76 78
67 64 58 56 52 70 35 28 30 32 35 39 35 32 28 26 26 26 28 30 31 44 58 79 78 73 71 71 72 73 70 67 68 68 68 68 66 69 60 56 56 60 65 72
52 51 64 59 57 48 44 44 41 38 33 32 35 31 29 31 31 30 32 41 50 62 66 78 79 76 78 73 66 56 54 61 66 62 61 65 69 64 62 63 70 77 80 81
54 58 54 60 60 65 55 45 43 42 37 35 34 30 32 34 32 37 41 48 66 79 86 85 86 90 96 94 71 65 64 59 51 51 50 46 52 52 51 59 72 78 82 90
56 56 56 61 54 50 48 43 42 42 38 35 34 35 33 35 40 42 45 50 56 63 64 73 80 80 79 81 74 70 65 56 49 49 48 48 42 42 53 63 68 70 75 78
53 54 53 62 62 63 49 46 44 40 39 38 40 38 41 46 47 52 54 60 66 72 78 85 99 99 98 78 71 68 62 50 44 39 35 34 35 36 41 49 60 78 81 92
53 48 47 46 46 47 47 42 42 45 44 44 46 48 50 55 61 66 69 71 85 94 90 90 94 92 85 70 56 44 38 32 28 25 22 23 26 32 39 50 65 77 85 85
59 54 50 47 43 49 50 48 48 47 48 50 56 62 64 67 77 74 80 97 94 100 94 100 97 92 45 34 27 24 19 18 19 20 21 24 29 36 48 59 81 86 83 87
56 52 54 56 56 55 57 58 58 51 54 56 66 72 81 86 87 87 96 99 99 99 88 43 36 33 30 25 24 27 27 27 24 22 22 24 28 31 41 66 71 77 87 88
64 57 60 60 56 57 64 70 68 67 69 75 88 91 97 99 95 98 88 76 67 56 48 45 36 32 30 31 26 23 20 18 18 18 18 19 25 38 60 90 99 99 97 97
Wind_Speed
22 23 26 10 7 11 15 18 22 10 10 22 20 26 26 24 26 23 18 17 19 19 16 17 20 23 24 23 24 28 28 29 26 22 18 16 14 15 16 14 15 18 21 23
23 30 21 16 17 17 18 20 22 16 11 19 20 24 18 13 12 17 21 23 24 26 23 23 26 26 30 27 25 20 21 25 27 24 17 18 19 22 22 21 21 20 20 21
25 18 9 12 8 15 19 23 22 22 18 18 15 21 16 3 6 13 18 23 25 26 28 29 26 26 23 27 23 18 11 13 16 19 22 22 23 26 27 25 24 23 24 25
20 23 27 25 25 23 28 24 24 21 16 6 7 11 9 2 2 1 4 4 6 8 15 20 21 20 28 21 21 18 18 17 18 22 25 26 27 28 27 26 26 28 29 31
28 25 17 18 19 16 20 14 16 13 15 15 10 6 3 2 3 5 7 7 12 12 9 10 17 14 10 18 19 22 23 22 23 25 26 27 29 29 29 29 31 33 34 36
34 32 28 25 20 17 13 11 8 10 12 6 16 15 9 7 6 9 11 12 12 14 14 9 4 4 11 18 20 23 26 26 26 29 31 31 30 32 32 33 35 36 37 36
42 45 39 35 34 26 21 14 4 2 3 6 11 14 17 9 4 12 8 15 12 8 10 9 5 3 3 6 11 16 20 23 26 24 24 29 33 34 34 35 36 35 30 25
37 32 41 40 39 38 33 32 11 7 4 4 15 9 11 8 5 7 7 16 11 10 10 10 11 14 13 13 12 14 15 17 15 17 22 24 30 28 26 27 28 30 28 29
34 33 35 32 17 24 33 27 38 17 3 2 8 11 18 19 14 5 8 12 12 11 11 10 12 16 16 15 18 19 21 23 25 26 21 22 21 20 21 23 27 32 33 36
41 26 28 30 27 26 24 18 14 20 6 6 8 21 20 11 9 8 9 14 13 11 16 16 16 19 22 25 25 25 23 26 25 23 21 24 25 26 24 22 24 30 31 31
50 33 18 21 26 29 28 32 21 21 21 6 3 10 16 22 10 12 14 19 20 17 20 24 27 28 30 34 34 32 31 25 27 26 22 23 24 25 24 25 24 26 27 28
53 30 30 33 18 24 29 32 36 21 15 21 15 22 8 14 15 22 21 29 30 26 27 31 34 38 43 43 41 45 38 34 28 25 26 26 26 27 28 30 28 30 32 33
48 32 15 16 30 26 24 30 33 41 33 36 12 12 19 18 18 19 26 34 36 36 38 43 43 45 46 45 39 35 42 39 33 31 28 29 29 33 35 34 34 34 35 37
41 38 34 32 31 28 43 37 33 37 31 35 37 27 22 20 24 24 25 29 35 38 41 39 44 44 46 31 31 29 31 34 32 32 32 32 33 35 38 41 41 40 40 40
37 33 41 48 39 32 20 36 40 37 44 35 41 37 34 26 25 29 33 36 34 32 38 39 39 42 29 22 24 28 26 29 28 29 30 32 34 35 37 43 42 42 43 42
38 28 30 34 36 33 26 16 26 31 30 32 33 33 26 27 30 32 31 31 37 36 29 35 36 30 28 25 22 22 20 19 20 21 25 29 30 32 32 34 36 39 41 41
33 33 36 26 26 29 25 34 37 35 33 32 33 37 34 29 26 28 34 39 31 33 32 26 25 24 25 20 20 22 22 22 23 22 23 26 30 32 34 35 35 35 40 45
28 36 39 34 21 4 37 43 41 38 32 25 27 27 24 24 27 34 29 31 41 32 28 23 21 23 20 17 16 17 19 20 21 22 24 25 25 26 27 28 31 36 42 48
39 37 32 29 30 34 30 33 32 33 33 30 20 18 27 31 28 31 38 34 30 28 29 29 27 25 24 25 26 28 27 28 29 29 31 35 37 39 41 42 39 39 43 49
24 20 30 15 13 18 26 28 23 19 28 27 25 21 21 25 34 33 33 33 30 27 28 31 32 32 37 35 35 39 41 42 37 37 41 46 46 46 48 47 46 45 47 50
28 30 27 23 18 22 20 17 19 18 31 25 25 26 29 30 32 34 34 36 37 40 41 41 40 42 43 39 39 41 44 42 43 43 44 44 46 45 46 46 47 48 48 49
37 30 31 23 14 19 18 22 27 31 29 34 33 29 25 31 31 31 36 40 42 42 43 47 42 50 39 38 41 45 47 46 49 50 51 50 51 52 51 53 52 51 52 55
51 51 38 29 35 36 28 30 31 27 28 29 28 33 33 32 32 34 40 42 42 40 44 50 47 39 39 44 46 47 48 49 49 50 51 51 52 51 51 49 47 45 42 39
29 37 47 37 44 40 32 32 33 37 36 37 37 37 39 39 36 41 41 49 45 39 53 47 50 41 41 42 43 45 45 44 42 43 43 42 41 43 44 44 40 37 35 32
43 42 39 38 39 38 36 35 37 43 42 42 38 42 44 44 46 45 54 41 42 42 42 34 30 33 36 37 37 36 36 35 36 38 37 37 36 35 35 36 33 31 32 30
45 41 42 47 46 42 46 54 56 52 46 43 44 43 40 34 41 37 33 32 29 27 26 28 31 31 30 31 33 33 34 35 36 37 37 36 35 31 25 22 26 23 13 15
Wind_Direction
236 243 244 250 258 268 273 275 286 303 334 306 310 289 288 286 268 268 263 255 253 260 257 263 274 269 259 259 262 267 263 255 257 258 268 273 270 278 280 286 285 286 282 278
231 245 254 253 258 261 264 271 278 295 314 317 313 299 309 314 301 259 261 258 256 259 266 271 283 270 261 254 259 271 268 253 251 257 266 260 264 269 274 279 287 294 291 285
242 238 230 230 260 265 260 261 276 295 317 316 313 306 353 28 301 277 263 264 263 268 271 274 271 265 279 249 257 256 247 242 241 248 257 259 265 268 271 282 286 286 281 281
253 246 247 258 268 265 265 269 275 280 297 289 286 291 333 41 352 70 44 351 322 267 298 287 269 279 276 250 259 254 246 235 243 250 258 266 274 277 278 278 279 279 280 280
241 255 253 260 269 266 264 267 261 266 270 283 280 254 247 191 23 306 311 327 346 343 358 290 256 275 273 243 253 252 258 256 261 266 268 272 275 274 274 276 277 278 278 277
251 256 258 264 264 255 249 273 278 261 254 262 266 219 272 205 332 328 328 341 325 318 328 352 335 308 258 260 258 259 262 267 271 272 275 275 270 267 269 271 273 275 277 280
248 251 253 254 257 248 242 254 284 258 207 225 205 195 241 236 327 333 338 340 352 353 347 343 339 336 308 303 291 280 276 275 273 275 277 277 271 270 271 270 272 274 276 279
237 255 250 252 253 254 239 233 203 210 198 232 187 228 240 199 290 311 323 352 5 354 345 353 346 346 339 329 320 309 300 289 285 285 296 282 275 277 280 280 279 272 266 285
229 241 249 253 257 245 239 224 235 235 249 287 217 235 241 253 274 278 289 339 350 342 344 7 359 347 335 323 314 309 300 295 299 305 300 285 267 266 287 292 278 277 272 290
230 243 249 250 242 239 234 243 201 209 186 223 243 245 229 236 234 251 291 314 324 307 295 295 299 306 307 299 292 296 293 289 292 295 289 275 265 287 300 295 283 275 286 287
226 227 229 230 225 229 219 224 220 225 225 178 221 249 250 236 254 263 295 309 309 302 290 289 288 291 296 295 286 286 284 277 281 282 281 281 279 291 295 299 297 291 291 298
227 228 234 225 225 233 237 245 223 213 216 221 238 241 208 210 246 275 289 306 304 298 295 292 292 293 293 291 285 281 273 272 267 270 272 279 275 285 286 287 288 288 289 292
224 216 223 243 235 221 213 227 232 229 236 235 210 250 235 235 250 258 292 295 293 296 297 302 303 304 310 310 308 295 263 265 266 263 264 272 276 282 286 287 287 286 289 289
224 218 222 224 235 241 223 225 227 228 226 236 235 239 250 264 280 291 285 282 288 292 298 301 304 306 311 305 305 299 287 259 260 254 259 270 277 280 281 283 283 285 287 289
220 226 238 247 245 241 258 237 231 228 235 234 250 261 268 276 282 288 294 294 298 301 304 304 304 311 318 306 304 303 305 277 262 249 251 263 273 275 278 275 275 279 283 284
217 219 235 245 241 240 245 230 238 238 249 249 250 254 265 278 286 292 292 300 306 310 309 311 312 310 307 300 300 304 309 290 279 279 278 271 268 269 272 276 264 266 273 280
220 224 235 249 247 244 237 240 245 255 255 255 255 269 279 285 286 286 295 305 307 311 310 303 296 299 304 303 288 289 295 288 283 276 270 268 270 275 272 268 268 271 271 274
241 231 237 242 250 228 261 255 248 253 264 264 261 263 272 279 287 301 305 308 310 305 304 288 283 289 289 294 300 300 294 286 276 273 274 276 281 285 283 281 280 277 271 270
230 229 220 222 223 241 249 240 239 243 252 257 262 271 290 293 299 307 309 306 301 296 295 286 285 286 291 300 298 299 302 295 291 290 290 288 286 289 291 290 285 282 280 278
209 214 219 217 218 236 251 254 249 235 253 247 272 284 296 297 300 302 302 298 290 284 284 288 288 288 287 294 298 298 294 295 295 289 289 289 289 293 289 286 281 273 270 271
216 223 217 217 232 242 236 229 224 226 257 264 282 291 294 293 295 295 294 293 291 289 290 295 289 287 289 292 293 295 301 302 301 299 295 291 290 287 285 283 282 280 275 272
232 229 230 228 242 250 226 235 239 259 273 281 287 288 287 293 291 288 293 291 288 288 291 305 287 295 291 296 297 295 297 300 299 298 297 296 294 291 288 286 284 280 279 276
228 231 233 232 243 253 255 255 261 259 269 277 281 286 288 289 285 285 291 288 282 281 292 296 291 295 296 298 298 299 300 300 299 298 298 297 296 296 294 292 291 290 290 290
213 226 233 239 243 248 255 254 258 272 280 282 286 288 292 291 290 294 291 289 283 285 298 290 287 298 292 291 295 296 297 298 299 300 300 300 298 296 293 294 294 295 295 290
228 233 235 241 245 243 251 262 273 277 280 282 282 287 285 290 291 291 285 275 279 287 287 292 295 294 299 301 300 303 304 307 308 308 310 312 312 310 306 303 310 318 317 306
237 235 230 236 245 250 253 261 265 272 272 272 274 278 281 285 291 282 282 285 289 293 297 301 300 301 304 305 305 306 305 306 305 305 307 306 307 311 310 320 318 300 289 288